TimeAKST,TemperatureF,Dew PointF,Humidity,Sea Level PressureIn,VisibilityMPH,Wind Direction,Wind SpeedMPH,Gust SpeedMPH,PrecipitationIn,Events,Conditions,WindDirDegrees,DateUTC
12:16 AM,37.4,33.8,87,29.47,10.0,ENE,11.5,20.7,N/A,,Overcast,60,2013-01-01 09:16:00
12:36 AM,37.4,33.8,87,29.47,10.0,ENE,15.0,19.6,N/A,,Mostly Cloudy,70,2013-01-01 09:36:00
12:56 AM,37.4,33.8,87,29.45,10.0,ENE,16.1,21.9,N/A,,Overcast,70,2013-01-01 09:56:00
1:16 AM,37.4,32.0,81,29.46,10.0,East,15.0,24.2,N/A,,Overcast,90,2013-01-01 10:16:00
1:36 AM,37.4,32.0,81,29.43,10.0,East,18.4,27.6,N/A,,Mostly Cloudy,100,2013-01-01 10:36:00
1:56 AM,37.4,32.0,81,29.43,10.0,East,18.4,28.8,N/A,,Partly Cloudy,100,2013-01-01 10:56:00
2:16 AM,37.4,32.0,81,29.42,10.0,East,15.0,27.6,N/A,,Clear,90,2013-01-01 11:16:00
2:36 AM,37.4,32.0,81,29.40,10.0,East,18.4,25.3,N/A,,Clear,90,2013-01-01 11:36:00
3:16 AM,37.4,32.0,81,29.40,10.0,East,11.5,19.6,N/A,,Clear,100,2013-01-01 12:16:00
3:36 AM,37.4,32.0,81,29.40,10.0,East,13.8,19.6,N/A,,Clear,90,2013-01-01 12:36:00
3:56 AM,37.4,32.0,81,29.40,10.0,East,16.1,21.9,N/A,,Clear,90,2013-01-01 12:56:00
4:16 AM,37.4,32.0,81,29.39,10.0,East,10.4,-,N/A,,Clear,100,2013-01-01 13:16:00
4:36 AM,37.4,32.0,81,29.39,10.0,East,13.8,-,N/A,,Clear,90,2013-01-01 13:36:00
4:56 AM,37.4,30.2,75,29.38,10.0,East,12.7,-,N/A,,Clear,100,2013-01-01 13:56:00
5:16 AM,37.4,30.2,75,29.37,10.0,East,11.5,-,N/A,,Clear,90,2013-01-01 14:16:00
5:36 AM,37.4,30.2,75,29.36,10.0,East,10.4,16.1,N/A,,Clear,90,2013-01-01 14:36:00
5:56 AM,37.4,30.2,75,29.36,10.0,East,10.4,-,N/A,,Clear,100,2013-01-01 14:56:00
6:16 AM,35.6,30.2,81,29.35,10.0,ENE,10.4,-,N/A,,Clear,70,2013-01-01 15:16:00
6:36 AM,35.6,30.2,81,29.34,10.0,East,10.4,-,N/A,,Clear,80,2013-01-01 15:36:00
6:56 AM,35.6,30.2,81,29.34,10.0,Calm,Calm,-,N/A,,Clear,0,2013-01-01 15:56:00
7:16 AM,35.6,30.2,81,29.35,10.0,NE,5.8,-,N/A,,Clear,40,2013-01-01 16:16:00
7:36 AM,33.8,28.4,81,29.34,10.0,East,8.1,-,N/A,,Clear,80,2013-01-01 16:36:00
7:56 AM,33.8,28.4,81,29.33,10.0,East,6.9,-,N/A,,Partly Cloudy,90,2013-01-01 16:56:00
8:16 AM,32.0,28.4,87,29.33,10.0,East,6.9,-,N/A,,Partly Cloudy,100,2013-01-01 17:16:00
8:36 AM,30.2,26.6,86,29.32,10.0,ESE,8.1,-,N/A,,Clear,110,2013-01-01 17:36:00
9:16 AM,35.6,28.4,75,29.33,10.0,East,4.6,-,N/A,,Clear,80,2013-01-01 18:16:00
9:36 AM,35.6,30.2,81,29.32,10.0,ENE,10.4,-,N/A,,Clear,60,2013-01-01 18:36:00
9:56 AM,35.6,28.4,75,29.32,10.0,ENE,8.1,-,N/A,,Clear,70,2013-01-01 18:56:00
10:16 AM,33.8,26.6,75,29.31,10.0,East,8.1,-,N/A,,Clear,100,2013-01-01 19:16:00
10:36 AM,32.0,28.4,87,29.31,10.0,East,10.4,-,N/A,,Clear,90,2013-01-01 19:36:00
10:56 AM,33.8,28.4,81,29.31,10.0,East,11.5,-,N/A,,Clear,100,2013-01-01 19:56:00
11:16 AM,35.6,28.4,75,29.29,10.0,ESE,15.0,-,N/A,,Clear,110,2013-01-01 20:16:00
11:36 AM,35.6,28.4,75,29.29,10.0,East,9.2,-,N/A,,Clear,90,2013-01-01 20:36:00
11:56 AM,35.6,28.4,75,29.27,10.0,ESE,10.4,-,N/A,,Clear,110,2013-01-01 20:56:00
12:16 PM,35.6,28.4,75,29.26,10.0,ESE,11.5,-,N/A,,Clear,110,2013-01-01 21:16:00
12:36 PM,35.6,28.4,75,29.26,10.0,ESE,8.1,-,N/A,,Clear,110,2013-01-01 21:36:00
12:56 PM,35.6,28.4,75,29.24,10.0,NNW,6.9,-,N/A,,Clear,330,2013-01-01 21:56:00
1:16 PM,37.4,28.4,70,29.24,10.0,Calm,Calm,-,N/A,,Clear,0,2013-01-01 22:16:00
1:36 PM,37.4,28.4,70,29.23,10.0,ENE,5.8,-,N/A,,Clear,60,2013-01-01 22:36:00
1:56 PM,37.4,30.2,75,29.22,10.0,ENE,8.1,-,N/A,,Clear,60,2013-01-01 22:56:00
2:16 PM,37.4,28.4,70,29.22,10.0,NE,3.5,-,N/A,,Clear,50,2013-01-01 23:16:00
2:36 PM,37.4,28.4,70,29.22,10.0,North,4.6,-,N/A,,Clear,350,2013-01-01 23:36:00
2:56 PM,35.6,26.6,70,29.22,10.0,NNW,3.5,-,N/A,,Clear,340,2013-01-01 23:56:00
3:16 PM,33.8,24.8,70,29.21,10.0,Calm,Calm,-,N/A,,Clear,0,2013-01-02 00:16:00
3:36 PM,32.0,24.8,75,29.20,10.0,Calm,Calm,-,N/A,,Clear,0,2013-01-02 00:36:00
3:56 PM,30.2,23.0,75,29.19,10.0,Calm,Calm,-,N/A,,Clear,0,2013-01-02 00:56:00
4:16 PM,28.4,24.8,86,29.18,10.0,Calm,Calm,-,N/A,,Clear,0,2013-01-02 01:16:00
4:36 PM,28.4,24.8,86,29.18,10.0,Calm,Calm,-,N/A,,Clear,0,2013-01-02 01:36:00
4:56 PM,26.6,23.0,86,29.17,10.0,Calm,Calm,-,N/A,,Clear,0,2013-01-02 01:56:00
5:16 PM,26.6,23.0,86,29.17,10.0,Calm,Calm,-,N/A,,Clear,0,2013-01-02 02:16:00
5:36 PM,26.6,24.8,93,29.16,10.0,Calm,Calm,-,N/A,,Clear,0,2013-01-02 02:36:00
5:56 PM,26.6,21.2,80,29.16,10.0,Calm,Calm,-,N/A,,Clear,0,2013-01-02 02:56:00
6:16 PM,26.6,23.0,86,29.17,10.0,Calm,Calm,-,N/A,,Clear,0,2013-01-02 03:16:00
6:36 PM,26.6,21.2,80,29.15,10.0,ENE,4.6,-,N/A,,Clear,60,2013-01-02 03:36:00
6:56 PM,24.8,21.2,86,29.16,10.0,East,3.5,-,N/A,,Clear,80,2013-01-02 03:56:00
7:16 PM,26.6,24.8,93,29.16,10.0,East,6.9,-,N/A,,Clear,100,2013-01-02 04:16:00
7:36 PM,28.4,24.8,86,29.16,10.0,ESE,8.1,-,N/A,,Partly Cloudy,110,2013-01-02 04:36:00
7:56 PM,30.2,24.8,80,29.16,10.0,East,5.8,-,N/A,,Scattered Clouds,90,2013-01-02 04:56:00
8:16 PM,30.2,24.8,80,29.16,10.0,ESE,5.8,-,N/A,,Mostly Cloudy,120,2013-01-02 05:16:00
8:36 PM,30.2,26.6,86,29.16,10.0,East,6.9,-,N/A,,Mostly Cloudy,100,2013-01-02 05:36:00
8:56 PM,30.2,26.6,86,29.17,10.0,ESE,6.9,-,N/A,,Overcast,110,2013-01-02 05:56:00
9:36 PM,30.2,26.6,86,29.17,10.0,ESE,8.1,-,N/A,,Overcast,110,2013-01-02 06:36:00
9:56 PM,30.2,26.6,86,29.18,10.0,ESE,5.8,-,N/A,,Overcast,110,2013-01-02 06:56:00
10:16 PM,30.2,26.6,86,29.19,10.0,SE,3.5,-,N/A,,Overcast,130,2013-01-02 07:16:00
10:36 PM,30.2,26.6,86,29.20,10.0,ESE,4.6,-,N/A,,Mostly Cloudy,110,2013-01-02 07:36:00
10:56 PM,30.2,26.6,86,29.20,10.0,ESE,5.8,-,N/A,,Overcast,120,2013-01-02 07:56:00
11:36 PM,32.0,26.6,80,29.22,10.0,ESE,4.6,-,N/A,,Overcast,110,2013-01-02 08:36:00
11:56 PM,30.2,26.6,86,29.23,10.0,ESE,6.9,-,N/A,,Overcast,110,2013-01-02 08:56:00